Terminal Aerodrome Forecast
Issued by NWS

Home | Current Version | Previous Version | Text Only | Print | Product List | Glossary On
Versions: 1 2 3 4 5 6 7 8 9 10 11 12 13 14 15 16 17 18
000
FTUS42 KRAH 010535
TAFRWI
TAF
KRWI 010535Z 0106/0206 00000KT P6SM SCT050
     FM010900 01006KT P6SM OVC050
     FM011500 01012G20KT P6SM -SHRA SCT025 OVC035
     FM012000 35018G28KT P6SM -SHRA SCT010 OVC025
     FM020300 33018G28KT P6SM BKN025=

USA.gov is the U.S. government's official web portal to all federal, state and local government web resources and services.